Rochester, MN

12:12 AM CDT on October 23, 2017 (GMT -0500)
Rochester International

Weather History for KRST - April, 2013

Change the Weather History Date:

Thursday, April 25, 2013

  Actual Average Record
Temperature  
Mean Temperature 41 °F 51 °F  
Max Temperature 50 °F 62 °F 87 °F (1939)
Min Temperature 31 °F 40 °F 17 °F (1934)
Degree Days  
Heating Degree Days 24 14  
Month to date heating degree days 707 488  
Since 1 July heating degree days 7424 7360  
Cooling Degree Days 0 0  
Month to date cooling degree days 0 0  
Year to date cooling degree days 0 0  
Moisture  
Dew Point 29 °F    
Average Humidity 64    
Maximum Humidity 89    
Minimum Humidity 39    
Precipitation  
Precipitation 0.01 in 0.13 in 2.40 in (1929)
Month to date precipitation 6.27 2.63  
Year to date precipitation 11.12 6.20  
Snow  
Snow T in 0.00 in 1.70 in (1965)
Month to date snowfall 4.2 3.0  
Since 1 July snowfall 59.5 51.6  
Snow Depth 0.00 in    
Sea Level Pressure  
Sea Level Pressure 30.14 in    
Wind  
Wind Speed 11 mph (West)    
Max Wind Speed 21 mph    
Max Gust Speed 26 mph    
Visibility 9 miles    
Events Rain , Snow    
T = Trace of Precipitation, MM = Missing Value Source: NWS Daily Summary

Daily Weather History Graph

Daily Weather History Graph

Search for Another Location

Airport or City:

Trip Planner

Search our weather history database for the weather conditions in past years. The results will help you decide how hot, cold, wet, or windy it might be!

Date:

Astronomy

Apr. 25, 2013 Rise Set
Actual Time 6:10 AM CDT 8:06 PM CDT
Civil Twilight 5:39 AM CDT 8:37 PM CDT
Nautical Twilight 5:01 AM CDT 9:15 PM CDT
Astronomical Twilight 4:20 AM CDT 9:57 PM CDT
Moon 8:21 PM CDT (4/25) 5:53 AM CDT (4/25)
Length of Visible Light 14h 57m
Length of Day
13h 55m
Full, 100% of the Moon is Illuminated
Apr 25
Full
Apr 25
Full
May 2
Last Quarter
May 9
New
May 17
First Quarter

Hourly Weather History & Observations

Time (CDT) Temp. Windchill Dew Point Humidity Pressure Visibility Wind Dir Wind Speed Gust Speed Precip Events Conditions
12:32 AM 35.6 °F 26.6 °F 32.0 °F 87% 29.99 in 10.0 mi West 13.8 mph - N/A   Mostly Cloudy
12:54 AM 36.0 °F 26.7 °F 32.0 °F 86% 30.03 in 10.0 mi West 15.0 mph - N/A   Overcast
1:16 AM 35.6 °F 26.2 °F 32.0 °F 87% 29.99 in 10.0 mi West 15.0 mph - N/A   Overcast
1:43 AM 35.6 °F 26.2 °F 32.0 °F 87% 30.00 in 10.0 mi West 15.0 mph - 0.00 in Rain Light Rain
1:51 AM 33.8 °F 24.3 °F 32.0 °F 93% 30.00 in 10.0 mi West 13.8 mph - 0.00 in Rain Light Rain
1:54 AM 34.0 °F 23.8 °F 32.0 °F 92% 30.04 in 9.0 mi West 16.1 mph - 0.00 in Snow Light Snow
2:25 AM 33.8 °F 23.2 °F 30.2 °F 87% 30.01 in 1.8 mi WNW 17.3 mph 26.5 mph 0.00 in Snow Light Snow
2:41 AM 33.8 °F 22.2 °F 30.2 °F 87% 30.01 in 2.5 mi WNW 20.7 mph 24.2 mph 0.01 in Snow Light Snow
2:54 AM 33.1 °F 22.6 °F 30.0 °F 89% 30.05 in 3.0 mi WNW 16.1 mph - 0.01 in Snow Light Snow
3:22 AM 32.0 °F 21.2 °F 28.4 °F 87% 30.03 in 7.0 mi WNW 16.1 mph - 0.00 in Snow Light Snow
3:54 AM 32.0 °F 21.6 °F 28.9 °F 88% 30.07 in 10.0 mi WNW 15.0 mph - 0.00 in   Overcast
4:54 AM 32.0 °F 21.6 °F 28.0 °F 85% 30.09 in 10.0 mi West 15.0 mph - N/A   Overcast
5:54 AM 30.9 °F 21.2 °F 27.0 °F 85% 30.12 in 10.0 mi West 12.7 mph - N/A   Overcast
6:41 AM 30.2 °F 19.3 °F 26.6 °F 86% 30.10 in 10.0 mi WNW 15.0 mph - N/A   Overcast
6:54 AM 30.9 °F 19.8 °F 27.0 °F 85% 30.15 in 10.0 mi WNW 16.1 mph - N/A   Overcast
7:54 AM 30.9 °F 20.7 °F 27.0 °F 85% 30.20 in 10.0 mi WNW 13.8 mph - N/A   Overcast
8:54 AM 32.0 °F 23.6 °F 27.0 °F 82% 30.22 in 10.0 mi WNW 10.4 mph - N/A   Overcast
9:54 AM 32.0 °F 23.6 °F 28.0 °F 85% 30.24 in 10.0 mi West 10.4 mph - N/A   Overcast
10:54 AM 35.1 °F 26.9 °F 28.9 °F 78% 30.25 in 10.0 mi West 11.5 mph - N/A   Overcast
11:54 AM 39.0 °F 32.8 °F 30.9 °F 73% 30.26 in 10.0 mi WNW 9.2 mph - N/A   Overcast
12:54 PM 41.0 °F 34.7 °F 30.0 °F 65% 30.25 in 10.0 mi West 10.4 mph 17.3 mph N/A   Mostly Cloudy
1:17 PM 42.8 °F 41.1 °F 30.2 °F 61% 30.21 in 10.0 mi Variable 3.5 mph - N/A   Scattered Clouds
1:54 PM 44.1 °F 41.5 °F 30.0 °F 58% 30.25 in 10.0 mi Variable 4.6 mph - N/A   Partly Cloudy
2:54 PM 46.0 °F 42.5 °F 32.0 °F 58% 30.24 in 10.0 mi Variable 6.9 mph - N/A   Partly Cloudy
3:54 PM 48.9 °F - 28.9 °F 46% 30.23 in 10.0 mi SW 10.4 mph - N/A   Clear
4:54 PM 50.0 °F - 26.1 °F 39% 30.22 in 10.0 mi SW 11.5 mph - N/A   Clear
5:54 PM 50.0 °F - 27.0 °F 41% 30.20 in 10.0 mi WSW 6.9 mph - N/A   Clear
6:54 PM 48.9 °F - 28.0 °F 44% 30.19 in 10.0 mi SSW 6.9 mph - N/A   Partly Cloudy
7:54 PM 46.0 °F 43.1 °F 28.9 °F 51% 30.19 in 10.0 mi SSE 5.8 mph - N/A   Clear
8:54 PM 43.0 °F 39.5 °F 30.9 °F 62% 30.20 in 10.0 mi SSE 5.8 mph - N/A   Clear
9:54 PM 41.0 °F 35.2 °F 30.0 °F 65% 30.20 in 10.0 mi SE 9.2 mph - N/A   Clear
10:54 PM 42.1 °F 35.2 °F 28.0 °F 58% 30.17 in 10.0 mi SE 12.7 mph - N/A   Clear
11:54 PM 41.0 °F 33.5 °F 28.9 °F 62% 30.15 in 10.0 mi SSE 13.8 mph - N/A   Clear